Tracking 28790 objects as of 19-Apr-2024
HD Live streaming from Space Station
objects crossing your sky now

COSMOS 1275 DEB

Track COSMOS 1275 DEB now!
10-day predictions


NORAD ID: 14408
Int'l Code: 1981-053JG
Perigee: 917.4 km
Apogee: 1,090.9 km
Inclination: 83.0 °
Period: 105.1 minutes
Semi major axis: 7375 km
RCS: 0.0048 m2 (small)
Launch date: June 4, 1981
Source: Commonwealth of Independent States (former USSR) (CIS)
Launch site: PLESETSK MISSILE AND SPACE COMPLEX (PKMTR)

Note: This is SATELLITE DEBRIS
Your satellite tracking list
Your tracking list is empty




NASA's NSSDC Master Catalog

Two Line Element Set (TLE):
1 14408U 81053JD  24099.29303324  .00001340  00000-0  14193-2 0  9992
2 14408  82.9645  40.8470 0117661  90.6503  60.3888 13.70708023593765
Source of the keplerian elements: AFSPC